Time,TemperatureF,DewpointF,PressureIn,WindDirection,WindDirectionDegrees,WindSpeedMPH,WindSpeedGustMPH,Humidity,HourlyPrecipIn,Conditions,Clouds,dailyrainin,SoftwareType,DateUTC
2013-12-23 00:00:00,51.4,50.0,29.86,South,180,8.0,21.0,95,0.01,,,-99.99,WeatherLink 5.6,2013-12-23 05:00:00,
2013-12-23 00:30:00,51.3,49.9,29.86,South,180,8.0,22.0,95,0.02,,,-99.99,WeatherLink 5.6,2013-12-23 05:30:00,
2013-12-23 01:00:00,51.0,49.6,29.85,South,180,10.0,26.0,95,0.03,,,-99.99,WeatherLink 5.6,2013-12-23 06:00:00,
2013-12-23 01:30:00,50.4,48.7,29.84,South,180,7.0,20.0,94,0.03,,,-99.99,WeatherLink 5.6,2013-12-23 06:30:00,
2013-12-23 02:00:00,50.3,48.6,29.85,South,180,4.0,15.0,94,0.04,,,-99.99,WeatherLink 5.6,2013-12-23 07:00:00,
2013-12-23 02:30:00,49.9,48.0,29.85,South,180,3.0,13.0,93,0.03,,,-99.99,WeatherLink 5.6,2013-12-23 07:30:00,
2013-12-23 03:00:00,49.4,47.7,29.88,South,180,2.0,10.0,94,0.02,,,-99.99,WeatherLink 5.6,2013-12-23 08:00:00,
2013-12-23 03:30:00,49.4,47.7,29.88,SSW,202,1.0,15.0,94,0.04,,,-99.99,WeatherLink 5.6,2013-12-23 08:30:00,
2013-12-23 04:00:00,49.2,47.5,29.87,South,180,2.0,12.0,94,0.03,,,-99.99,WeatherLink 5.6,2013-12-23 09:00:00,
2013-12-23 04:30:00,49.0,47.6,29.86,SW,225,1.0,6.0,95,0.02,,,-99.99,WeatherLink 5.6,2013-12-23 09:30:00,
2013-12-23 05:00:00,48.8,47.4,29.86,North,-999,0.0,0.0,95,0.01,,,-99.99,WeatherLink 5.6,2013-12-23 10:00:00,
2013-12-23 05:30:00,49.2,47.5,29.87,West,270,2.0,13.0,94,0.00,,,-99.99,WeatherLink 5.6,2013-12-23 10:30:00,
2013-12-23 06:00:00,48.0,46.6,29.88,WNW,292,1.0,9.0,95,0.00,,,-99.99,WeatherLink 5.6,2013-12-23 11:00:00,
2013-12-23 06:30:00,47.7,46.3,29.88,West,270,1.0,11.0,95,0.02,,,-99.99,WeatherLink 5.6,2013-12-23 11:30:00,
2013-12-23 07:00:00,47.9,46.5,29.91,North,-999,0.0,0.0,95,0.02,,,-99.99,WeatherLink 5.6,2013-12-23 12:00:00,
2013-12-23 07:30:00,46.8,45.4,29.93,NW,315,2.0,16.0,95,0.02,,,-99.99,WeatherLink 5.6,2013-12-23 12:30:00,
2013-12-23 08:00:00,42.7,41.4,29.97,NW,315,8.0,19.0,95,0.03,,,-99.99,WeatherLink 5.6,2013-12-23 13:00:00,
2013-12-23 08:30:00,40.3,39.0,30.00,NW,315,9.0,20.0,95,0.01,,,-99.99,WeatherLink 5.6,2013-12-23 13:30:00,
2013-12-23 09:00:00,36.7,35.4,30.02,NW,315,9.0,20.0,95,0.01,,,-99.99,WeatherLink 5.6,2013-12-23 14:00:00,
2013-12-23 09:30:00,36.4,35.1,30.05,NW,315,8.0,18.0,95,0.01,,,-99.99,WeatherLink 5.6,2013-12-23 14:30:00,
2013-12-23 10:00:00,35.3,34.0,30.07,NW,315,6.0,18.0,95,0.01,,,-99.99,WeatherLink 5.6,2013-12-23 15:00:00,
2013-12-23 10:30:00,34.1,32.8,30.08,NW,315,8.0,19.0,95,0.01,,,-99.99,WeatherLink 5.6,2013-12-23 15:30:00,
2013-12-23 11:00:00,33.6,32.3,30.09,NW,315,5.0,18.0,95,0.00,,,-99.99,WeatherLink 5.6,2013-12-23 16:00:00,
2013-12-23 11:30:00,33.4,32.1,30.09,NW,315,5.0,10.0,95,0.00,,,-99.99,WeatherLink 5.6,2013-12-23 16:30:00,
2013-12-23 12:00:00,33.3,32.0,30.08,NNW,337,5.0,14.0,95,0.00,,,-99.99,WeatherLink 5.6,2013-12-23 17:00:00,
2013-12-23 12:30:00,33.2,31.9,30.08,NW,315,6.0,15.0,95,0.00,,,-99.99,WeatherLink 5.6,2013-12-23 17:30:00,
2013-12-23 13:00:00,33.2,31.9,30.08,NW,315,4.0,12.0,95,0.00,,,-99.99,WeatherLink 5.6,2013-12-23 18:00:00,
2013-12-23 13:30:00,32.8,31.5,30.09,NNW,337,2.0,12.0,95,0.00,,,-99.99,WeatherLink 5.6,2013-12-23 18:30:00,
2013-12-23 14:00:00,32.1,30.8,30.10,NNW,337,3.0,13.0,95,0.00,,,-99.99,WeatherLink 5.6,2013-12-23 19:00:00,
2013-12-23 14:30:00,31.8,30.5,30.10,NNW,337,2.0,12.0,95,0.00,,,-99.99,WeatherLink 5.6,2013-12-23 19:30:00,
2013-12-23 15:00:00,31.5,30.0,30.10,NNW,337,3.0,13.0,94,0.00,,,-99.99,WeatherLink 5.6,2013-12-23 20:00:00,
2013-12-23 15:30:00,31.5,29.7,30.10,NNW,337,5.0,12.0,93,0.00,,,-99.99,WeatherLink 5.6,2013-12-23 20:30:00,
2013-12-23 16:00:00,31.2,29.4,30.11,NNW,337,4.0,11.0,93,0.00,,,-99.99,WeatherLink 5.6,2013-12-23 21:00:00,
2013-12-23 16:30:00,31.1,29.0,30.11,NNW,337,3.0,10.0,92,0.00,,,-99.99,WeatherLink 5.6,2013-12-23 21:30:00,
2013-12-23 17:00:00,30.4,28.6,30.12,NNW,337,4.0,12.0,93,0.00,,,-99.99,WeatherLink 5.6,2013-12-23 22:00:00,
2013-12-23 17:30:00,28.9,27.1,30.14,NNW,337,6.0,14.0,93,0.00,,,-99.99,WeatherLink 5.6,2013-12-23 22:30:00,
2013-12-23 18:00:00,28.8,27.0,30.14,NNW,337,4.0,11.0,93,0.00,,,-99.99,WeatherLink 5.6,2013-12-23 23:00:00,
2013-12-23 18:30:00,28.7,26.9,30.15,NNW,337,2.0,10.0,93,0.00,,,-99.99,WeatherLink 5.6,2013-12-23 23:30:00,
2013-12-23 19:00:00,28.2,26.4,30.15,NNW,337,4.0,10.0,93,0.00,,,-99.99,WeatherLink 5.6,2013-12-24 00:00:00,
2013-12-23 19:30:00,27.7,25.7,30.17,North,0,2.0,14.0,92,0.00,,,-99.99,WeatherLink 5.6,2013-12-24 00:30:00,
2013-12-23 20:00:00,27.6,25.3,30.17,NNW,337,3.0,13.0,91,0.00,,,-99.99,WeatherLink 5.6,2013-12-24 01:00:00,
2013-12-23 20:30:00,27.5,25.0,30.18,NNW,337,0.0,7.0,90,0.00,,,-99.99,WeatherLink 5.6,2013-12-24 01:30:00,
2013-12-23 21:00:00,27.3,24.5,30.18,NNW,337,1.0,7.0,89,0.00,,,-99.99,WeatherLink 5.6,2013-12-24 02:00:00,
2013-12-23 21:30:00,27.3,24.8,30.20,NW,315,1.0,7.0,90,0.00,,,-99.99,WeatherLink 5.6,2013-12-24 02:30:00,
2013-12-23 22:00:00,27.1,24.3,30.20,NW,315,0.0,8.0,89,0.00,,,-99.99,WeatherLink 5.6,2013-12-24 03:00:00,
2013-12-23 22:30:00,26.9,23.8,30.21,NW,315,1.0,6.0,88,0.00,,,-99.99,WeatherLink 5.6,2013-12-24 03:30:00,
2013-12-23 23:00:00,26.9,23.8,30.21,North,-999,0.0,0.0,88,0.00,,,-99.99,WeatherLink 5.6,2013-12-24 04:00:00,
2013-12-23 23:30:00,26.5,23.2,30.21,North,-999,0.0,0.0,87,0.00,,,-99.99,WeatherLink 5.6,2013-12-24 04:30:00,